Volver al catálogo

ARIANE 1 DEB

ActivoGTO
NORAD 40776·DEBRIS·🇫🇷 France

Lanzado Dec 24, 1979 desde Guiana Space Centre

Loading…

TLE

ObsoletoSource: Space-Track

Época: Sep 12, 2026, 14:01 UTC

1 40776U 79104AD  26255.58444928 -.00000629  00000-0 -98595-2 0  9996
2 40776  18.0214   3.5365 7148592  94.4859   3.6591  2.24598764  2002

Sigue ARIANE 1 DEB en tiempo real con AllMySat

Download on the App Store